Theta_e
312 315 315 314 317 313 317 321 321 315 317 313 314 315 315 315 312 312 313 314 318 320 319 320 320 322 324 325 328 329 330 330 331 332 331 331 331 329 329 328 327 326 325 325
315 316 312 308 311 312 316 318 318 316 311 311 312 311 310 311 311 315 315 314 314 317 319 320 319 321 322 321 321 325 329 329 330 331 331 331 331 329 328 328 327 326 326 325
315 314 311 311 310 311 310 310 310 313 309 307 308 310 309 310 309 311 312 314 313 314 316 318 319 318 319 319 320 321 322 325 327 329 331 332 332 332 330 329 327 327 325 325
315 314 313 313 313 311 312 309 309 309 310 310 307 311 309 311 313 307 309 313 314 314 314 316 317 318 318 317 318 319 320 323 324 327 329 331 331 331 331 330 328 328 327 323
315 311 315 314 313 311 312 308 310 310 310 310 308 306 306 306 311 314 310 312 314 315 315 315 316 316 316 317 317 319 319 321 323 325 327 329 330 331 331 331 331 327 326 322
308 309 314 314 311 311 307 310 309 306 311 315 310 308 308 308 308 308 309 312 314 316 316 315 316 315 316 316 315 314 316 320 322 325 327 328 328 329 330 330 329 327 325 322
307 306 305 308 309 308 311 314 316 317 316 316 303 306 314 307 306 306 307 312 314 316 316 316 315 315 316 315 314 313 312 314 318 321 324 327 328 328 328 330 329 326 325 323
311 312 305 304 307 309 313 316 314 316 311 311 303 309 311 306 310 309 311 310 309 311 314 315 316 315 315 315 314 312 312 312 315 317 319 325 327 328 328 329 329 326 325 323
309 310 304 304 305 309 307 315 309 308 296 304 305 304 305 304 304 305 306 308 310 311 311 312 312 314 313 313 312 312 312 312 313 314 317 324 327 328 329 329 330 327 327 325
306 308 305 305 306 305 308 308 310 308 310 307 306 305 309 307 305 304 304 307 312 312 312 311 311 311 311 310 310 311 311 312 313 314 320 325 326 327 327 328 329 329 327 324
304 306 307 305 306 306 305 308 306 308 307 309 307 309 301 305 306 306 306 307 308 309 309 310 311 310 309 309 310 311 311 312 314 317 320 321 321 320 322 325 326 327 325 326
304 305 306 306 305 303 304 306 308 309 307 304 306 311 303 302 301 303 305 308 310 310 308 309 310 309 310 310 310 311 311 311 312 312 312 311 311 310 310 313 324 323 323 323
304 305 302 307 306 305 304 304 307 307 304 306 306 310 306 308 308 306 307 310 310 309 308 308 308 309 310 310 310 310 310 311 311 311 310 310 310 309 309 314 322 321 321 322
308 305 307 309 307 305 307 305 303 306 307 309 307 308 308 306 303 304 306 308 309 309 309 309 308 309 309 310 310 310 310 310 311 311 311 310 310 310 311 322 319 320 321 321
306 306 305 306 306 306 306 306 304 305 308 309 309 307 308 304 305 306 308 309 308 309 310 309 309 309 309 309 309 309 310 311 312 312 312 312 314 317 318 318 320 320 319 319
304 304 305 304 306 305 304 306 306 307 307 306 307 306 308 306 307 307 310 309 310 310 310 309 309 309 309 310 310 309 310 312 313 313 313 315 317 320 318 318 318 318 318 313
305 301 299 307 306 305 308 307 306 306 306 307 308 309 305 303 303 307 309 308 309 310 310 309 310 310 310 310 310 310 310 311 313 313 313 314 317 318 317 317 317 317 311 305
306 304 301 296 302 310 308 305 307 307 308 307 308 306 306 307 308 308 309 309 309 309 309 310 310 310 310 310 310 309 309 310 312 313 313 314 315 316 316 316 315 308 303 299
302 304 302 308 301 306 308 304 303 305 308 306 306 305 304 307 306 307 309 309 309 309 310 310 310 309 309 310 309 309 308 309 310 312 313 313 314 315 315 311 306 301 298 297
301 305 308 302 311 310 306 305 306 305 309 304 304 303 303 303 303 307 309 309 309 309 309 309 309 309 309 309 309 309 308 308 309 310 311 311 310 309 307 304 301 298 297 296
298 297 309 303 308 301 303 302 307 307 307 308 307 307 304 303 307 308 308 308 309 309 309 309 309 309 309 308 308 309 308 308 308 308 308 307 306 305 302 300 298 296 296 296
304 305 304 291 307 309 300 301 308 307 306 306 306 305 305 307 306 306 307 307 307 307 308 308 308 308 308 308 308 308 308 307 307 307 306 305 303 301 299 297 296 295 295 295
303 304 303 306 305 302 301 304 305 306 307 306 307 307 307 307 306 306 306 306 306 306 307 307 307 307 307 307 307 307 307 307 306 306 305 303 301 299 297 296 295 295 295 294
299 297 303 303 299 300 302 304 304 305 305 306 306 306 306 307 306 306 307 307 306 306 306 307 307 306 306 306 306 305 306 306 305 305 304 302 300 298 296 296 295 295 294 292
302 301 298 297 300 301 303 303 304 303 303 304 304 304 305 305 305 306 306 306 306 307 306 306 306 306 305 305 305 305 304 304 304 303 302 301 299 297 296 295 295 294 292 299
298 301 306 306 302 303 304 305 303 304 303 302 303 302 302 302 303 303 303 304 305 305 306 306 305 305 304 304 303 303 302 302 302 302 301 300 299 297 296 295 294 293 298 299
Wind_Speed
3 4 14 15 8 5 6 3 6 0 4 3 6 11 16 23 19 20 24 26 28 32 28 27 26 26 27 29 30 30 30 28 28 27 26 26 24 22 20 19 15 16 15 15
4 10 5 8 9 6 7 4 2 3 3 4 6 10 13 15 17 31 33 31 32 32 31 30 29 28 30 29 32 33 32 31 30 29 27 27 24 23 22 21 16 17 18 18
7 5 9 6 4 8 4 7 5 4 3 2 4 10 10 10 24 31 32 30 29 36 33 34 33 33 30 32 33 33 33 33 32 31 30 30 28 28 25 23 21 20 17 19
6 3 14 9 7 6 6 7 6 4 2 3 1 6 6 8 18 12 25 36 34 31 37 35 36 35 34 33 31 32 31 33 32 32 33 34 32 30 28 25 23 21 18 20
10 11 14 15 8 8 5 7 8 5 4 4 4 3 7 5 13 18 24 34 35 37 32 40 38 36 35 33 33 34 33 34 33 33 33 34 35 33 29 25 21 23 20 16
6 7 12 8 7 13 8 6 8 5 3 5 5 6 6 6 8 6 15 34 38 37 36 35 39 37 35 34 33 35 37 38 37 37 36 37 36 34 32 28 23 24 17 12
3 3 2 10 7 4 7 13 2 2 3 8 3 6 21 6 5 6 11 25 30 35 39 39 35 37 37 38 37 36 37 41 39 39 40 39 37 34 30 28 26 25 22 20
10 6 9 5 7 9 10 9 5 6 5 3 1 9 9 7 21 22 25 22 22 27 33 37 38 39 40 41 40 38 36 37 37 37 38 40 38 37 33 30 29 27 24 22
5 4 3 4 5 11 5 9 7 5 2 2 5 7 10 9 10 14 21 24 29 24 25 29 34 39 42 40 40 38 36 35 35 35 34 36 36 37 35 32 30 30 27 25
6 4 1 1 6 1 12 11 5 3 5 5 5 5 9 3 8 10 11 21 30 31 31 31 28 31 34 39 40 37 35 34 34 33 33 34 34 34 33 32 31 31 30 27
6 4 1 7 9 10 4 9 5 6 6 6 2 6 8 9 10 9 13 19 24 28 28 27 29 26 26 29 34 34 34 33 34 34 34 33 33 33 32 31 31 29 29 27
6 5 4 8 3 4 7 9 17 5 6 2 2 10 6 8 7 10 18 17 19 26 26 23 26 25 24 26 29 30 31 31 32 32 32 33 33 34 34 33 30 29 27 27
8 3 3 5 4 1 7 7 13 9 3 8 6 10 5 18 24 17 16 23 19 18 19 20 24 26 25 25 26 26 27 28 28 29 30 29 29 30 31 31 30 28 29 28
22 4 10 14 3 8 8 7 6 10 5 17 8 20 25 5 7 10 12 16 15 16 16 19 25 26 25 25 26 27 26 26 24 24 25 23 24 25 27 30 30 31 31 28
7 11 2 2 4 5 7 11 12 12 22 12 23 19 28 9 11 19 22 20 17 18 19 23 26 28 27 26 24 23 22 23 23 24 23 22 22 24 29 30 32 31 29 25
4 8 7 2 3 5 1 10 19 22 21 13 21 13 15 7 20 23 34 22 26 23 27 22 24 27 28 26 24 24 24 24 24 24 24 23 25 28 31 32 32 31 29 28
12 7 4 13 6 5 5 21 12 9 11 17 17 35 7 7 10 25 32 22 28 37 31 23 22 29 29 28 26 26 26 26 25 25 25 27 28 31 33 32 31 31 31 30
11 8 3 3 4 9 13 11 18 22 20 18 21 4 8 22 33 32 31 29 35 33 26 22 21 26 31 29 28 28 27 28 27 28 29 29 31 32 33 32 32 32 31 29
1 5 1 5 3 8 22 4 6 9 25 17 18 10 12 24 17 30 38 31 33 34 31 28 25 24 27 31 31 30 30 31 31 32 31 32 32 34 34 34 34 32 30 28
4 6 8 3 7 15 1 17 17 5 22 12 18 15 16 17 7 16 30 25 30 32 32 30 25 25 25 27 33 34 35 35 35 35 34 33 33 33 34 34 33 31 29 25
4 2 16 6 7 9 7 6 23 10 7 11 16 23 17 10 21 19 15 13 15 17 21 23 23 25 25 24 29 36 37 38 36 34 34 35 35 35 34 33 32 30 28 27
10 10 6 3 11 19 7 4 21 9 10 6 5 3 14 23 23 19 19 18 17 17 17 18 19 20 22 23 26 35 39 37 35 35 37 37 36 36 35 33 32 30 29 27
3 8 7 12 9 2 21 5 14 9 9 9 5 3 3 4 6 9 12 14 15 14 14 15 16 16 17 20 23 30 35 37 36 37 39 39 37 36 35 33 32 32 30 28
3 2 4 5 4 5 17 18 16 11 9 8 7 6 4 5 5 6 7 8 10 10 9 10 10 11 13 16 21 27 31 34 36 39 40 39 38 37 35 34 34 33 31 28
4 9 5 2 1 1 10 26 16 14 8 7 6 5 5 4 3 0 2 4 5 6 6 6 5 4 7 11 17 22 25 30 35 38 38 38 38 37 37 36 35 33 27 20
5 6 8 7 11 5 5 23 16 11 11 10 8 8 7 6 6 6 5 5 4 5 6 5 5 4 3 6 11 16 20 25 31 35 37 37 37 38 38 37 35 31 25 28
Wind_Direction
133 128 199 190 200 112 143 155 201 281 245 232 230 246 247 252 255 256 247 246 234 234 231 227 227 227 225 224 226 226 225 226 226 225 225 226 229 230 233 232 234 237 242 243
100 210 165 143 159 152 140 132 202 293 269 184 292 261 261 245 238 246 250 246 240 235 234 229 226 227 228 226 227 226 229 227 230 232 233 234 235 236 237 239 239 244 245 246
161 154 143 136 147 159 155 148 161 210 295 221 286 277 242 242 239 242 244 247 251 245 233 231 226 226 228 230 227 228 229 229 227 230 233 235 237 239 239 236 238 243 247 248
212 190 169 173 185 157 185 166 146 117 47 260 108 285 265 248 237 223 238 243 244 250 242 235 235 231 229 232 233 233 231 233 231 230 231 235 238 240 243 244 244 251 259 242
193 159 177 204 162 164 202 149 175 146 82 359 207 283 270 271 245 235 227 238 242 241 251 241 234 231 233 234 235 236 234 233 233 232 234 238 241 244 247 248 250 250 245 247
168 182 180 185 159 171 134 76 37 43 82 270 212 204 240 219 228 237 229 237 238 240 240 249 241 237 234 234 236 237 237 234 232 233 234 238 241 243 242 239 237 239 240 235
144 170 177 139 113 116 129 152 146 162 202 238 293 172 247 255 268 242 241 243 235 236 240 242 245 242 236 235 235 236 236 234 232 234 235 238 241 240 238 236 230 235 239 239
163 210 165 182 159 155 164 172 164 170 200 245 141 222 246 236 250 256 261 272 264 249 242 244 245 247 245 240 238 233 232 231 232 233 235 235 237 238 236 233 229 233 239 241
132 211 37 152 137 136 180 202 159 85 82 51 217 286 295 257 278 275 259 258 253 250 246 250 250 246 245 241 236 233 231 229 230 233 233 233 234 236 235 232 227 232 233 236
187 124 11 91 107 50 183 149 162 199 205 245 245 259 233 319 260 269 281 257 254 259 262 257 254 253 248 238 233 229 227 226 228 228 230 232 234 236 237 233 229 224 232 232
157 101 351 141 207 164 135 186 192 162 180 190 251 249 196 223 226 236 262 274 281 285 283 270 258 251 241 230 227 225 223 222 223 224 225 230 233 235 235 230 225 220 227 224
187 115 149 205 259 190 185 190 199 185 220 293 126 269 179 231 241 245 277 296 299 298 287 267 247 236 225 220 220 221 220 221 221 224 227 231 234 235 232 226 215 214 215 217
174 176 77 9 343 206 213 198 202 215 62 200 161 256 156 240 263 254 265 283 288 295 285 259 232 224 219 215 220 224 226 226 227 229 231 231 228 224 219 209 203 205 208 209
162 159 191 202 158 131 187 171 185 193 209 236 227 253 255 281 268 272 259 274 286 289 280 259 234 226 218 217 222 226 229 228 227 225 221 215 211 206 201 195 199 202 201 207
158 219 165 17 144 144 172 191 182 194 221 205 240 229 260 214 258 281 294 297 289 288 280 262 237 227 224 222 221 225 225 224 219 214 209 202 198 193 191 195 197 195 204 205
178 240 158 223 119 140 184 211 201 211 221 222 241 267 255 259 245 254 261 270 277 278 286 269 247 235 230 228 225 222 220 218 214 212 206 199 195 191 193 195 197 198 198 193
173 135 115 235 148 91 309 226 206 205 207 208 231 244 160 233 224 245 260 260 277 279 270 272 261 244 236 233 228 221 217 215 213 210 207 203 199 196 195 196 197 196 193 190
186 171 125 160 83 211 261 165 215 224 234 221 244 249 213 234 249 265 271 266 266 272 270 272 278 257 245 235 227 221 217 216 213 210 207 205 202 199 197 197 195 193 192 191
78 146 104 160 186 300 273 209 154 179 248 232 244 241 228 254 264 263 259 260 265 267 275 276 273 271 254 242 231 223 219 216 213 210 207 204 201 198 196 194 193 193 193 194
76 185 186 142 209 230 344 207 170 125 268 190 201 216 217 197 225 251 262 265 262 264 270 273 274 275 266 245 234 227 222 218 216 211 207 203 200 199 199 198 196 197 196 197
103 48 201 178 222 273 238 180 156 190 253 208 215 230 213 197 231 254 253 266 274 271 269 271 269 267 266 251 233 228 225 224 220 213 207 205 203 203 202 201 201 199 198 198
159 163 197 101 218 253 164 81 179 205 205 194 206 226 222 241 246 254 270 278 282 282 278 279 276 269 258 250 239 230 228 226 219 213 209 206 204 203 202 203 201 200 201 203
192 185 172 188 210 226 186 185 204 184 205 221 212 206 231 272 286 282 282 284 286 286 286 281 280 272 259 248 241 235 231 226 219 213 210 207 205 205 204 204 205 205 204 206
267 190 173 106 223 207 200 208 213 208 208 211 223 218 224 246 268 286 301 303 309 315 309 293 285 273 263 253 243 235 232 226 219 215 211 208 207 206 207 207 209 210 209 206
173 140 159 291 288 324 232 212 215 203 189 182 185 186 188 203 201 179 0 339 334 326 326 320 311 283 257 254 250 243 234 225 218 214 212 209 209 210 210 210 212 211 207 231
185 164 182 215 193 165 203 212 199 179 174 167 169 154 143 135 124 110 92 79 61 46 43 41 32 3 309 269 255 246 234 224 218 214 212 212 213 213 213 214 210 208 237 235